Manhattan, KS

12:56 PM CDT on September 24, 2017 (GMT -0500)
Manhattan Regional

Weather History for KMHK - February, 2012

Change the Weather History Date:

Saturday, February 18, 2012

  Actual Average Record
Temperature  
Mean Temperature 35 °F 34 °F  
Max Temperature 45 °F 46 °F 78 °F (2016)
Min Temperature 24 °F 21 °F 1 °F (2006)
Degree Days  
Heating Degree Days 30 31  
Month to date heating degree days 550 599  
Since 1 July heating degree days 3453 3865  
Cooling Degree Days 0 0  
Month to date cooling degree days 0 0  
Year to date cooling degree days 0 0  
Moisture  
Dew Point 22 °F    
Average Humidity 61    
Maximum Humidity 81    
Minimum Humidity 40    
Precipitation  
Precipitation 0.00 in 0.05 in 0.03 in (1997)
Month to date precipitation 1.77 0.66  
Year to date precipitation 1.80 1.31  
Sea Level Pressure  
Sea Level Pressure 30.21 in    
Wind  
Wind Speed 7 mph (NE)    
Max Wind Speed 17 mph    
Max Gust Speed 21 mph    
Visibility 10 miles    
Events      
T = Trace of Precipitation, MM = Missing Value Source: NWS Daily Summary

Daily Weather History Graph

Daily Weather History Graph

Search for Another Location

Airport or City:

Trip Planner

Search our weather history database for the weather conditions in past years. The results will help you decide how hot, cold, wet, or windy it might be!

Date:

Astronomy

Feb. 18, 2012 Rise Set
Actual Time 7:15 AM CST 6:06 PM CST
Civil Twilight 6:47 AM CST 6:34 PM CST
Nautical Twilight 6:16 AM CST 7:05 PM CST
Astronomical Twilight 5:45 AM CST 7:36 PM CST
Moon 4:54 AM CST (2/18) 3:05 PM CST (2/18)
Length of Visible Light 11h 46m
Length of Day
10h 51m
Waning Crescent, 11% of the Moon is Illuminated
Feb 18
Waning Crescent
Feb 21
New
Feb 29
First Quarter
Mar 8
Full
Mar 14
Last Quarter

Hourly Weather History & Observations

Time (CST) Temp. Windchill Dew Point Humidity Pressure Visibility Wind Dir Wind Speed Gust Speed Precip Events Conditions
12:52 AM 35.1 °F 24.8 °F 26.1 °F 70% 30.22 in 10.0 mi NE 17.3 mph - N/A   Overcast
1:52 AM 32.0 °F 23.0 °F 26.1 °F 79% 30.22 in 10.0 mi NE 11.5 mph - N/A   Clear
2:52 AM 30.0 °F 22.4 °F 25.0 °F 82% 30.24 in 10.0 mi NE 8.1 mph - N/A   Clear
3:52 AM 30.0 °F 21.1 °F 24.1 °F 79% 30.23 in 10.0 mi NNE 10.4 mph - N/A   Partly Cloudy
4:52 AM 28.9 °F 21.1 °F 21.9 °F 75% 30.24 in 10.0 mi NNE 8.1 mph - N/A   Clear
5:52 AM 27.0 °F 19.5 °F 21.9 °F 81% 30.26 in 10.0 mi NNE 6.9 mph - N/A   Clear
6:52 AM 25.0 °F 20.7 °F 19.9 °F 81% 30.27 in 10.0 mi NNE 3.5 mph - N/A   Clear
7:52 AM 27.0 °F 21.6 °F 19.9 °F 75% 30.28 in 10.0 mi NNE 4.6 mph - N/A   Clear
8:52 AM 30.9 °F 22.2 °F 21.0 °F 67% 30.30 in 10.0 mi NE 10.4 mph - N/A   Clear
9:52 AM 35.1 °F 26.4 °F 19.0 °F 52% 30.28 in 10.0 mi ENE 12.7 mph - N/A   Clear
10:52 AM 37.0 °F 28.1 °F 19.0 °F 48% 30.25 in 10.0 mi ENE 15.0 mph - N/A   Clear
11:52 AM 39.0 °F 31.4 °F 21.0 °F 49% 30.24 in 10.0 mi ENE 12.7 mph - N/A   Scattered Clouds
12:52 PM 41.0 °F 33.9 °F 21.9 °F 47% 30.19 in 10.0 mi NE 12.7 mph - N/A   Clear
1:52 PM 43.0 °F 39.5 °F 21.0 °F 42% 30.17 in 10.0 mi Variable 5.8 mph - N/A   Clear
2:52 PM 44.1 °F 39.0 °F 21.0 °F 40% 30.16 in 10.0 mi NNE 9.2 mph - N/A   Mostly Cloudy
3:52 PM 43.0 °F 39.5 °F 21.0 °F 42% 30.16 in 10.0 mi Variable 5.8 mph - N/A   Mostly Cloudy
4:52 PM 43.0 °F 38.8 °F 21.9 °F 43% 30.15 in 10.0 mi East 6.9 mph - N/A   Overcast
5:52 PM 41.0 °F 36.4 °F 21.9 °F 47% 30.15 in 10.0 mi ENE 6.9 mph - N/A   Overcast
6:52 PM 39.2 °F 35.9 °F 21.2 °F 49% 30.14 in 10.0 mi ENE 4.6 mph - N/A   Overcast
7:52 PM 36.0 °F 33.3 °F 21.9 °F 57% 30.17 in 10.0 mi NNE 3.5 mph - N/A   Scattered Clouds
8:52 PM 33.1 °F - 21.0 °F 61% 30.17 in 10.0 mi Calm Calm - N/A   Clear
9:52 PM 28.9 °F - 21.0 °F 72% 30.17 in 10.0 mi Calm Calm - N/A   Clear
10:52 PM 24.1 °F - 19.9 °F 84% 30.17 in 9.0 mi Calm Calm - N/A   Clear
11:52 PM 27.0 °F - 21.0 °F 78% 30.16 in 9.0 mi Calm Calm - N/A   Clear